Location: Sheerness
(51.4333°N, 0.7667°E)
Time: 19:57:07
(UTC+00:00)

Daily predictions for brighter satellites

Satellite Brightness Start Highest point End
(mag) Time Altitude Azimuth Time Altitude Azimuth Time Altitude Azimuth
Resurs 1-3 4.1 19:25:15 10° SE 19:29:25 44° ENE 19:33:35 10° N
Lacrosse 5 rocket 1.8 19:26:04 10° WSW 19:30:06 64° NNW 19:34:23 10° ENE
Nadezhda 4 Rocket 4.2 19:25:08 10° NNW 19:31:29 83° W 19:37:44 10° S
Cosmos 2034 Rocket 4.0 19:26:01 10° S 19:32:13 80° E 19:38:32 10° NNE
Cosmos 405 Rocket 3.9 19:29:49 10° N 19:33:19 27° ENE 19:36:45 10° SE
In-Cosmos 22 Rocket 4.5 19:30:56 10° NNW 19:36:48 81° W 19:42:36 10° S
Cosmos 1464 Rocket 4.5 19:33:49 10° SSW 19:40:05 70° WNW 19:46:20 10° N
Cosmos 2237 Rocket 3.0 19:34:54 10° NNW 19:40:10 37° NE 19:45:22 10° ESE
Exosat Rocket 4.0 19:34:05 10° NNW 19:41:12 69° ENE 19:46:31 10° SE
BREEZE-M DEB (TANK) 4.1 19:37:49 10° WSW 19:42:39 44° S 19:47:24 10° E
SJ-6B 2.8 19:39:18 10° SSE 19:43:01 83° WSW 19:46:49 10° NNW
Meteor 2-10 Rocket 3.6 19:38:56 10° S 19:44:09 72° E 19:49:39 10° NNE
SL-8 R/B 4.2 19:39:38 10° W 19:44:18 49° SSW 19:48:58 10° ESE
BREEZE-M DEB (TANK) 4.1 19:41:47 10° SW 19:44:48 45° SSE 19:52:12 10° ENE
MOS 1 4.3 19:41:27 10° SSE 19:47:05 80° ENE 19:52:46 10° NNW
Cosmos 2026 Rocket 4.0 19:41:50 10° N 19:47:55 69° ENE 19:54:00 10° SSE
Cosmos 405 2.9 19:46:49 10° S 19:50:14 63° E 19:53:42 10° NNE
OBJECT-B 1.2 19:48:13 10° S 19:51:25 66° W 19:54:40 10° NNW
IRS-1A Rocket 4.3 19:46:23 10° SSE 19:51:58 87° ENE 19:57:42 10° NNW
Terra 3.9 19:51:19 10° E 19:53:30 13° NE 19:55:42 10° NNE
USA-17 4.4 19:50:18 10° SSW 19:53:53 52° SE 19:56:55 10° NE
BREEZE-M DEB (TANK) 3.9 19:50:05 10° SW 19:54:14 72° SSE 20:10:04 10° ENE
CZ-4 R/B 4.5 19:52:07 10° WSW 19:54:31 15° W 19:56:55 10° NW
Cosmos 1892 3.4 19:50:53 10° NNW 19:54:36 55° W 19:58:17 10° S
NOSS 3-4 (A) 3.5 19:49:21 10° SW 19:55:15 88° NW 20:01:43 10° NE
NOSS 3-4 (C) 3.5 19:49:27 10° SW 19:55:21 89° NW 20:01:50 10° NE
Cosmos 1627 Rocket 4.5 19:51:52 10° N 19:58:02 83° E 20:04:14 10° SSE
Cosmos 2227 Rocket 3.8 19:57:04 11° ESE 19:59:14 14° E 20:01:59 10° ENE
Cosmos 1606 Rocket 4.3 19:55:55 10° SSW 20:00:13 58° WNW 20:04:32 10° N
SPOT 1/Viking Rocket 4.3 19:58:13 11° SE 20:02:41 37° ENE 20:07:28 10° N
Cosmos 2251 Rocket 3.9 19:57:37 10° S 20:02:42 45° ESE 20:07:46 10° NE
Cosmos 389 Rocket 3.6 20:00:15 11° SE 20:02:55 25° E 20:05:52 10° NE
Cosmos 2333 Rocket 2.8 19:58:12 10° NW 20:03:51 57° WSW 20:09:26 10° S
Cosmos 2297 Rocket 3.5 20:02:25 10° SE 20:06:23 20° E 20:10:21 10° NE
BREEZE-M DEB (TANK) 1.9 20:04:20 10° W 20:06:49 50° S 20:08:17 18° ESE
Cosmos 1825 2.2 20:03:35 10° NNW 20:07:23 85° W 20:11:10 10° S
Cosmos 1634 Rocket 4.0 20:01:20 10° S 20:07:34 71° E 20:13:47 10° NNE
ATLAS 2AS CENTAUR R/B 3.0 20:01:04 10° SW 20:08:59 80° SE 20:16:44 10° NE
Cosmos 2219 4.5 20:05:52 12° SE 20:09:03 19° E 20:12:53 10° ENE
SPOT 3 Rocket 3.6 20:03:58 10° SSE 20:09:06 65° ENE 20:14:14 10° N
NOSS 7 (H) 4.0 20:06:33 10° SW 20:09:49 84° SE 20:12:44 10° NE
Cosmos 1726 Rocket 4.3 20:06:23 10° SSW 20:10:42 57° WNW 20:15:01 10° N
ARIANE 5 R/B 3.7 20:09:19 15° ESE 20:12:17 29° ENE 20:16:05 10° N
Ariane Rocket 3.4 20:09:35 10° S 20:14:36 66° WSW 20:19:40 10° NNW
Cosmos 1408 3.9 20:12:00 10° NNW 20:15:22 39° W 20:18:42 10° SSW
Orbus 7S? 3.4 20:16:43 10° SW 20:19:36 53° SE 20:25:03 10° ENE
CZ-4C R/B 3.3 20:16:04 10° WSW 20:21:12 49° NNW 20:27:28 10° NE
RESURS DK-1 2.3 20:18:17 10° SSW 20:22:22 65° ESE 20:26:30 10° NE
Genesis I 4.1 20:18:57 10° NNW 20:22:44 40° NE 20:25:22 18° E
Landsat 7 3.8 20:20:38 14° SSE 20:24:45 69° ENE 20:29:30 10° N
USA 245 3.7 20:24:37 20° SE 20:26:54 41° ENE 20:30:00 10° N
Cosmos-2242 4.1 20:25:50 20° SE 20:27:35 26° E 20:31:10 10° NNE
Cosmos 2058 3.5 20:24:18 10° NNW 20:28:26 57° W 20:32:31 10° S
NOSS 7 (E) 4.2 20:24:51 10° SW 20:28:29 78° SE 20:31:35 10° NE
Meteor 2-1 Rocket 4.3 20:23:14 10° S 20:29:04 83° E 20:35:03 10° NNE
Cosmos 1655 Rocket 4.1 20:26:46 10° N 20:33:01 59° ENE 20:37:46 18° SSE
Cosmos 482 Debris 2.4 20:31:16 10° WSW 20:33:36 88° SSE 20:33:56 55° E
SL-16 R/B 3.1 20:28:54 10° NNW 20:34:10 37° NE 20:37:53 18° ESE
Cosmos 1980 3.7 20:29:56 10° NNW 20:35:40 83° ENE 20:39:44 20° SSE
Cosmos 2058 Rocket 4.0 20:32:38 10° SSW 20:36:53 50° WNW 20:41:09 10° N
COSMOS 2487 4.0 20:34:04 10° SW 20:37:15 37° WNW 20:40:29 10° N
Cosmos 614 Rocket 3.9 20:32:16 10° S 20:37:19 61° ESE 20:42:22 10° NNE
BREEZE-M DEB (TANK) 3.9 20:34:04 10° WSW 20:38:28 75° SSE 20:55:22 10° E
Cosmos 2151 3.0 20:38:32 10° N 20:42:51 64° ENE 20:45:16 25° SSE
COSMOS 2428 3.8 20:38:55 10° NW 20:44:15 40° WSW 20:49:33 10° S
Meteor 2-3 Rocket 3.9 20:39:04 10° N 20:44:48 60° ENE 20:48:26 22° SSE
IRIDIUM 104 4.3 20:40:16 10° S 20:45:29 82° E 20:50:45 10° N
Cosmos 1076 Rocket 3.8 20:42:17 10° NNW 20:46:39 69° W 20:50:07 15° S
Cosmos 2344 3.5 20:39:48 10° SW 20:47:13 79° SE 20:55:20 10° NE
ATLAS 3B R/B 3.4 20:40:38 10° NW 20:47:21 51° WSW 20:53:12 15° SSE
FALCON 9 DEB 3.3 20:45:19 10° SW 20:48:37 46° SSE 20:49:45 32° E
USA 215 3.4 20:45:38 21° SE 20:50:12 69° SW 20:56:46 10° WNW
Cosmos 1812 Rocket 3.5 20:47:57 14° S 20:51:44 74° E 20:56:13 10° NNE
Resurs 01 Rocket 2.4 20:50:18 11° S 20:54:22 49° W 20:58:43 10° NNW
IRIDIUM 114 4.3 20:49:24 10° S 20:54:39 85° W 20:59:54 10° N
Cosmos 1818 3.5 20:49:36 10° SW 20:55:03 82° SE 21:00:34 10° NE
Cosmos 1455 4.1 20:52:33 10° SW 20:55:53 30° WNW 20:59:14 10° N
Cosmos 2219 Rocket 3.9 20:52:21 10° NW 20:57:08 28° WSW 21:01:52 10° SSW
ERS-1 Rocket 3.3 20:54:40 27° SE 20:57:10 53° ENE 21:02:03 10° N
Cosmos 44 3.5 20:52:02 10° SW 20:57:14 88° NW 21:02:41 10° NE
Cosmos 407 Rocket 3.6 20:53:35 15° S 20:57:37 51° ESE 21:02:38 10° NNE
Okean 3 Rocket 4.2 20:53:25 10° N 20:57:46 42° ENE 20:59:21 30° ESE
NOSS 0 Rocket 4.5 20:52:26 10° NW 20:58:29 54° WSW 21:03:07 17° S
Meteor 2-21 4.4 20:54:48 10° NNW 21:00:53 84° W 21:05:28 18° S
Cosmos 1766 Rocket 4.0 20:57:59 10° N 21:02:10 44° ENE 21:03:29 33° ESE
Cosmos 1633 2.6 20:59:00 10° NNW 21:02:38 74° W 21:04:10 32° S
CARTOSAT-1 3.5 21:04:22 33° SSE 21:06:13 75° ENE 21:10:33 10° N
ATLAS 5 CENTAUR R/B 4.1 21:04:39 10° WNW 21:08:15 23° NNW 21:12:19 10° NE
Cosmos 405 Rocket 4.4 21:05:42 10° NNW 21:09:19 32° W 21:12:30 12° SSW
Meteor 1-4 Rocket 3.9 21:10:11 24° ENE 21:10:11 24° ENE 21:12:23 10° NE
Lacrosse 5 rocket 2.7 21:05:49 10° WNW 21:09:47 39° N 21:13:56 10° ENE
Cosmos 909 Rocket 4.1 21:07:14 10° SW 21:13:32 85° NW 21:20:10 10° NE
Cosmos 1023 Rocket 4.4 21:12:05 20° S 21:15:35 64° ESE 21:20:39 10° NNE
COSMOS 2455 3.7 21:18:15 29° ESE 21:18:24 29° ESE 21:23:27 10° NE
Cosmos 1869 3.7 21:18:39 42° ESE 21:18:51 42° E 21:22:37 10° NNE
SPOT 5 2.7 21:19:30 40° SSE 21:21:09 78° ENE 21:25:56 10° NNW
Cosmos 1140 Rocket 3.3 21:18:31 20° S 21:22:01 70° ESE 21:27:09 10° NNE
Cosmos 2237 Rocket 2.8 21:18:58 10° NW 21:24:24 50° WSW 21:27:26 25° S
Spot 2 Rocket 3.7 21:21:43 27° S 21:24:28 67° WSW 21:29:33 10° NNW
CZ-2C R/B 4.1 21:20:27 10° N 21:24:51 61° WNW 21:28:53 12° SSW
SeaSat 1 4.3 21:22:54 10° ENE 21:24:38 16° E 21:24:38 16° E
Terra 1.8 21:28:59 44° SE 21:30:25 70° ENE 21:35:11 10° N
Cosmos 2082 4.0 21:39:13 40° ESE 21:39:42 41° ESE 21:44:56 10° NE
Cosmos 2263 Rocket 4.1 21:42:46 14° E 21:42:46 14° E 21:44:28 10° ENE
USA 229 DEB 4.4 21:34:25 10° NW 21:41:24 54° NNE 21:46:08 23° ESE
USA 229 4.4 21:34:31 10° NW 21:41:30 54° NNE 21:46:15 23° E
Cosmos 2227 Rocket 2.1 21:38:45 24° SSW 21:42:18 74° ESE 21:47:58 10° NNE
Cosmos 468 Rocket 4.1 21:37:16 10° NNW 21:42:23 64° ENE 21:43:44 46° ESE
Meteor 2-8 Rocket 4.3 21:42:18 33° S 21:45:14 78° E 21:51:23 10° NNE
ARIANE 5 R/B 3.7 21:46:52 27° SW 21:48:38 38° W 21:52:47 10° NNW
Cosmos 1842 Rocket 4.2 21:49:34 40° E 21:49:34 40° E 21:53:31 10° NNE
Cosmos 2297 Rocket 2.2 21:44:05 10° SSW 21:49:45 82° WNW 21:55:27 10° NNE
Cosmos 841 Rocket 4.3 21:45:10 10° NNW 21:50:06 40° NE 21:51:30 33° E
Cosmos 1190 Rocket 4.0 21:47:50 22° SSW 21:51:15 81° WNW 21:56:31 10° NNE
Cosmos 2219 3.1 21:47:37 14° SSW 21:52:30 85° WNW 21:58:10 10° NNE
H-2A R/B 3.3 21:49:13 10° NNE 21:53:27 75° ESE 21:53:41 72° SE
NOSS 3-1 (A) 4.3 21:52:18 10° NW 21:59:18 60° NE 22:04:04 26° ESE
Genesis I 4.3 21:56:37 10° WNW 22:00:14 35° WSW 22:00:14 35° WSW
ATLAS 2AS CENTAUR R/B 4.1 21:53:08 10° W 22:00:40 45° NNW 22:07:54 10° NE
Cosmos 921 Rocket 4.1 21:57:18 10° N 22:01:23 34° ENE 22:01:48 33° ENE
Timation 2 Rocket 4.0 21:55:02 10° SSW 22:01:37 87° NW 22:07:57 10° NNE
Cosmos 1763 Rocket 3.3 21:56:57 10° NNW 22:02:05 85° ENE 22:02:58 61° SSE
Cosmos 1862 3.3 21:58:17 10° N 22:02:04 72° NE 22:02:04 72° NE
Nadezhda 2 Rocket 4.4 21:57:17 10° N 22:03:38 88° W 22:05:44 45° S
Cosmos-2242 4.3 22:02:37 21° SW 22:04:59 38° WNW 22:09:03 10° N
Cosmos 1408 Rocket 3.4 22:01:31 10° NNW 22:05:51 84° W 22:06:07 77° SSW
Cosmos 676 Rocket 3.9 22:07:08 47° SSW 22:08:40 89° ESE 22:13:53 10° NNE
CRYOSAT 2 4.3 22:10:15 59° SSW 22:11:09 79° W 22:16:06 10° N
CZ-4C R/B 4.4 22:06:06 10° WNW 22:11:12 29° N 22:17:13 10° NE
Cosmos 1805 Rocket 4.4 22:07:15 10° N 22:11:11 37° ENE 22:11:11 37° ENE
Spot 4 4.4 22:11:46 42° E 22:12:19 44° ENE 22:16:55 10° N
SL-16 R/B 2.6 22:13:00 10° NW 22:18:31 51° WSW 22:19:46 43° SSW
Sich 1 4.0 22:17:16 10° N 22:20:54 35° ENE 22:20:54 35° ENE
Cosmos 1743 Rocket 3.5 22:17:05 10° N 22:21:17 76° NE 22:21:17 76° NE
Cosmos 540 Rocket 3.4 22:16:21 10° NNW 22:21:30 71° ENE 22:22:04 64° ESE
Meteor 2-15 Rocket 4.3 22:22:07 51° S 22:23:48 87° E 22:29:55 10° NNE
NOSS 3-1 (C) 3.9 22:18:19 10° NW 22:25:37 86° SW 22:28:42 44° SE
SL-08 ROCKET BODY 4.3 22:20:21 10° N 22:26:29 87° W 22:27:52 56° S
Cosmos 1570 Rocket 4.3 22:23:22 10° NNW 22:28:37 57° ENE 22:29:21 52° E
Cosmos 2221 2.5 22:30:07 77° NNW 22:30:07 77° NNW 22:34:11 10° N
SL-08 R/B 4.4 22:24:01 10° N 22:30:13 84° W 22:31:43 55° S
Cosmos 1386 Rocket 4.3 22:27:26 10° N 22:33:32 75° ENE 22:34:38 60° SE
USA 215 4.5 22:32:58 23° SW 22:34:01 24° SW 22:39:12 10° WNW
Cosmos 44 Rocket 3.4 22:36:36 66° E 22:36:36 66° E 22:41:24 10° NE
Aureole 1 Rocket 3.7 22:38:07 56° E 22:38:07 56° E 22:42:32 10° NNE
Cosmos 1553 Rocket 3.8 22:39:11 58° S 22:40:30 89° E 22:46:38 10° N
Cosmos 1500 Rocket 3.7 22:36:32 10° NNW 22:40:50 68° W 22:40:50 68° W
Meteor 1-4 Rocket 4.4 22:44:18 25° WNW 22:44:22 25° WNW 22:47:23 10° N
Cosmos 1943 3.1 22:42:40 10° NNW 22:48:20 80° ENE 22:48:59 69° ESE
Cosmos 1741 Rocket 3.9 22:48:41 77° ESE 22:48:42 77° ESE 22:54:00 10° NNE
Lacrosse 5 rocket 2.0 22:45:16 10° WNW 22:49:32 55° NNE 22:49:47 54° NE
ALOS 2 3.2 22:49:56 50° NE 22:49:56 50° NE 22:53:51 10° N
Cosmos 1417 Rocket 4.4 22:49:46 59° S 22:51:08 89° WNW 22:57:27 10° N
Cosmos 1850 Rocket 3.8 22:54:08 85° SSE 22:54:14 87° ESE 22:59:31 10° NNE
ATLAS 5 CENTAUR R/B 4.2 22:50:32 10° NW 22:54:27 23° NNE 22:58:55 10° ENE
Cosmos 2208 Rocket 3.9 22:58:10 10° NNW 23:03:31 84° ENE 23:03:42 82° ESE
COSMOS 2455 3.0 23:01:18 35° WSW 23:03:55 69° NW 23:09:57 10° NE
SeaSat 1 2.3 22:59:22 10° NNE 23:04:20 86° WNW 23:04:24 85° W
Cosmos 1606 3.9 23:09:02 40° NNW 23:09:02 40° NNW 23:11:39 10° N
Terra 3.8 23:07:51 17° WSW 23:08:40 18° W 23:11:57 10° NW
Cosmos 2315 Rocket 4.1 23:10:31 58° ESE 23:11:10 61° E 23:17:25 10° NNE
Iridium 4 Rocket 3.9 23:11:57 49° ENE 23:11:57 49° ENE 23:16:43 10° NNE
Cosmos 1151 Rocket 4.2 23:21:43 37° NE 23:21:43 37° NE 23:24:43 10° NNE
Cosmos 2263 Rocket 2.0 23:24:25 82° ESE 23:24:25 82° ESE 23:29:59 10° NNE
Cosmos 2227 Rocket 4.0 23:22:05 10° W 23:26:56 28° NW 23:31:48 10° NNE
Cosmos 841 Rocket 4.4 23:27:11 10° NW 23:31:35 37° W 23:31:35 37° W
USA 229 DEB 4.0 23:25:30 10° NW 23:32:36 58° SW 23:33:33 54° SSW
Cosmos 1603 4.1 23:27:09 10° NW 23:32:30 50° WSW 23:32:30 50° WSW
USA 229 4.0 23:25:35 10° NW 23:32:42 58° SW 23:33:40 55° SSW
Meteor 2-17 Rocket 4.4 23:26:58 10° NNW 23:33:04 70° W 23:33:42 65° SW
Cosmos 2297 Rocket 4.4 23:30:16 10° W 23:34:41 23° NW 23:39:07 10° NNE
USA 281 3.4 23:33:03 45° ESE 23:35:00 64° NE 23:41:31 10° NNW
Cosmos 1844 Rocket 4.0 23:39:31 26° E 23:39:31 26° E 23:43:19 10° NE
Cosmos 2074 Rocket 4.1 23:36:12 10° N 23:42:25 62° ENE 23:43:22 55° ESE
Cosmos 1437 Rocket 4.2 23:43:52 35° NNW 23:43:52 35° NNW 23:46:21 10° N
Cosmos 1709 Rocket 4.2 23:40:00 10° NNW 23:46:05 57° W 23:46:44 54° WSW
Meteor 1-5 Rocket 4.4 23:41:08 10° N 23:46:53 62° ENE 23:47:20 60° E
NOSS 3-1 (A) 4.2 23:43:14 10° NW 23:50:26 53° WSW 23:51:30 50° SSW
